Location: Bay Ridge
(40.6340°N, 74.0146°W)
Time: 18:30:32
(UTC+00:00)

Cosmos 2263 Rocket - Pass Details

Date: 15 November 2019
Orbit: 825 x 847 km, 71.0° (Epoch: 11 December)

Event Time Altitude Azimuth Distance (km) Brightness Sun altitude
Rises 00:24:21 0° 341° (NNW) 3,371 5.6 -31.4°
Reaches altitude 10° 00:26:52 10° 347° (NNW) 2,434 4.7 -31.8°
Enters shadow 00:27:57 16° 351° (N) 2,051 4.3 -32.0°
